Location: ??????
(42.0089°N, 44.3281°E)
Time: 17:30:17
(UTC+00:00)

Okean 1-7 Rocket - Pass Details

Date: 07 June 2022
Orbit: 616 x 648 km, 82.5° (Epoch: 01 July)

Event Time Altitude Azimuth Distance (km) Brightness Sun altitude
Exits shadow 00:38:28 - 251° (WSW) 2,093 5.7 -8.2°
Reaches altitude 10° 00:38:57 10° 256° (WSW) 1,980 5.6 -8.1°
Maximum altitude 00:41:26 15° 291° (WNW) 1,687 5.5 -7.7°
Drops below altitude 10° 00:43:56 10° 325° (NW) 1,986 6.2 -7.4°
Sets 00:47:06 0° 350° (N) 2,898 7.4 -6.9°
